Regional Weather Roundup
Issued by NWS

Home | Current Version | Previous Version | Graphics & Text | Print | Product List | Glossary On
Versions: 1 2 3 4 5 6 7 8 9 10 11 12 13 14 15 16 17 18 19 20 21 22 23 24 25 26 27 28 29 30 31 32 33 34 35 36 37 38 39 40 41 42 43 44 45 46 47 48 49 50
000
ASUS43 KLSX 161807
RWRMO

WEATHER SUMMARY FOR MISSOURI
NATIONAL WEATHER SERVICE SPRINGFIELD MO
100 PM CDT WED AUG 16 2017

NOTE: "FAIR" INDICATES FEW OR NO CLOUDS BELOW 12,000 FEET WITH NO
       SIGNIFICANT WEATHER AND/OR OBSTRUCTIONS TO VISIBILITY.
       CURRENT SKY AND/OR WEATHER CONDITIONS ARE NOT AVAILABLE FOR
       CHILLICOTHE AND FARMINGTON.

MOZ001>031-035>038-043-044-053-054-161900-
...NORTHERN AND WESTERN MISSOURI...

CITY           SKY/WX    TMP DP  RH WIND       PRES   REMARKS
KANSAS CTY INT CLOUDY    83  73  72 SW12      29.79R
6HR MIN TEMP:  72; 6HR MAX TEMP:  83; 6HR PCP:  0.45;

KANSAS C DTWN  CLOUDY    85  72  65 S9        29.78F HX  91
6HR MIN TEMP:  72; 6HR MAX TEMP:  85; 6HR PCP:  0.93;

LEE`S SUMMIT   CLOUDY    83  75  77 VRB7      29.80F HX  90
6HR MIN TEMP:  71; 6HR MAX TEMP:  83; 6HR PCP:  0.16;

ST JOSEPH      CLOUDY    80  76  87 SW10      29.78R
6HR MIN TEMP:  73; 6HR MAX TEMP:  80; 6HR PCP:  0.25;

CHILLICOTHE      N/A     80  75  84 SE9       29.81F
6HR MIN TEMP:  72; 6HR MAX TEMP:  81; 6HR PCP:  0.20;

KIRKSVILLE     PTSUNNY   79  71  76 S12       29.89R
6HR MIN TEMP:  70; 6HR MAX TEMP:  82; 6HR PCP: TRACE;


$$
MOZ066>068-077>081-088>096-101>105-161900-
...SOUTHWEST MISSOURI...

CITY           SKY/WX    TMP DP  RH WIND       PRES   REMARKS
SPRINGFIELD    MOSUNNY   85  75  72 S20G29    29.90F HX  93
6HR MIN TEMP:  73; 6HR MAX TEMP:  87;

JOPLIN         RAIN      76  76 100 NW10      29.90R
6HR MIN TEMP:  75; 6HR MAX TEMP:  88; 6HR PCP:  0.53;

BRANSON        PTSUNNY   81  77  89 S6        29.96F

$$
MOZ032>034-039>042-045>050-055>058-069>072-161900-
...CENTRAL MISSOURI...

CITY           SKY/WX    TMP DP  RH WIND       PRES   REMARKS
COLUMBIA       PTSUNNY   81  75  82 S13       29.89F
6HR MIN TEMP:  73; 6HR MAX TEMP:  82; 6HR PCP:  0.17;

JEFFERSON CITY CLOUDY    82  78  88 SE8       29.87F HX  91
6HR MIN TEMP:  74; 6HR MAX TEMP:  82; 6HR PCP:  0.48;

ROLLA          PTSUNNY   86  75  69 S16       29.92F HX  95
6HR MIN TEMP:  72; 6HR MAX TEMP:  87; 6HR PCP: TRACE;

SEDALIA        PTSUNNY   82  77  84 W3        29.87F THUNDER HX  90
6HR MIN TEMP:  72; 6HR MAX TEMP:  85; 6HR PCP:  0.30;

WHITEMAN AFB   LGT RAIN  74  74 100 SE8       29.82F
WARRENSBURG    CLOUDY    73  72  94 SE13      29.81F
OSAGE BEACH    PTSUNNY   87  75  67 S16       29.88F HX  96

$$
MOZ051-052-059>065-161900-
...EAST CENTRAL MISSOURI...

CITY           SKY/WX    TMP DP  RH WIND       PRES   REMARKS
ST LOUIS INTL  PTSUNNY   86  73  65 S10       29.94F HX  93
6HR MIN TEMP:  75; 6HR MAX TEMP:  89; 6HR PCP: TRACE;

SPIRIT OF STL  CLOUDY    87  75  67 VRB3      29.91F HX  96
6HR MIN TEMP:  74; 6HR MAX TEMP:  87;

ST CHARLES     CLOUDY    86  75  69 S9        29.92F HX  95
6HR MIN TEMP:  74; 6HR MAX TEMP:  86;


$$
MOZ072>076-082>087-097>100-106>115-161900-
...SOUTH CENTRAL AND SOUTHEAST MISSOURI...

CITY           SKY/WX    TMP DP  RH WIND       PRES   REMARKS
CAPE GIRARDEAU CLOUDY    87  78  74 S10G17    29.96F HX 100
6HR MIN TEMP:  74; 6HR MAX TEMP:  87;

FARMINGTON     CLOUDY    82  77  84 S5        29.97F HX  90
6HR MIN TEMP:  72; 6HR MAX TEMP:  82; 6HR PCP: TRACE;

POPLAR BLUFF   MOSUNNY   87  79  76 S10       29.95F HX 101
6HR MIN TEMP:  73; 6HR MAX TEMP:  87;

WEST PLAINS    PTSUNNY   84  74  71 SW9       29.99F HX  91
6HR MIN TEMP:  74; 6HR MAX TEMP:  86;


$$



USA.gov is the U.S. government's official web portal to all federal, state and local government web resources and services.